Weather in Sariwon

North Korea     38°30′45″N   125°45′24″E
temp.,
°C
wind,
m/s
gust,
m/s
humid.,
%
clouds,
%
prec.,
mm/h
press.,
hPa
HPBL,
m
18 may, tue
tue1800:00+13sse1181100 0.0 101111
03:00+13se1185100 0.0 101011
06:00+12se1185100 0.0 101113
09:00+18sse226495 0.0 1012377
12:00+24ssw22400 0.0 10101133
15:00+26sw54345 0.0 10091764
18:00+23sw46450 0.0 1009349
21:00+16ssw22630 0.0 101131
19 may, wed
wed1900:00+14sse22671 0.0 101217
03:00+13se22660 0.0 101217
06:00+13se22710 0.0 101230
09:00+20sse34530 0.0 1013383
12:00+26sw45350 0.0 10121288
15:00+27sw55311 0.0 10121473
18:00+23sw574495 0.0 1011421
21:00+17ssw1157100 0.0 101311
20 may, thu
thu2000:00+16ene1159100 0.0 101311
03:00+16e0057100 0.0 101211
06:00+15nne1159100 0.0 101310
09:00+18n2355100 0.0 1010127
12:00+23nnw1140100 0.0 1009581
15:00+24n2340100 0.0 1007473
18:00+21nne2454100 0.0 1005248
21:00+17nnw2377100 0.5 100664
21 may, fri
fri2100:00+16n51079100 0.1 1004366
03:00+15nne4775100 0.4 1003187
06:00+14nne4980100 0.1 1003785
09:00+14n3685100 0.4 1004338
12:00+15nne6880100 0.0 1004548
15:00+14n6881100 0.0 1005508
18:00+15nne3776100 0.0 1005331
21:00+14nnw3577100 0.0 1007163
22 may, sat
sat2200:00+13nw2381100 0.0 100879
03:00+13nnw2482100 0.0 1008108
06:00+12w11875 0.0 100914
09:00+18nnw34650 0.0 1009620
12:00+23nw45470 0.0 10091151
15:00+24nw67440 0.0 10081005
18:00+22nw344899 0.0 1008467
21:00+16w0063100 0.0 100911